Wind_Speed
11 18 21 20 20 22 33 36 36 33 31 27 27 26 27 26 29 31 28 23 24 23 22 19 16 16 12 10 9 5 5 9 12 11 12 16 18 21 23 22 23 25 24
13 13 16 22 19 21 28 31 36 36 35 32 27 21 23 26 28 28 25 26 26 24 23 19 15 16 16 14 8 5 8 8 8 8 10 3 9 19 23 22 22 22 22
15 3 6 11 8 5 12 29 32 38 36 33 30 20 23 20 23 27 26 29 26 26 22 19 19 16 13 9 9 7 7 8 10 10 8 3 3 10 7 16 17 21 25
7 3 3 9 13 12 12 12 20 31 37 36 34 33 24 23 25 24 26 26 28 25 22 20 20 15 12 12 9 7 9 10 12 12 13 17 16 4 6 9 9 18 21
9 6 3 2 7 13 13 15 16 14 33 37 35 35 29 27 23 26 28 29 29 24 24 20 17 16 15 13 11 12 13 13 14 16 15 14 16 18 8 9 10 12 18
6 4 7 9 7 8 9 8 10 13 27 27 27 29 30 28 26 28 27 28 25 25 22 20 18 16 14 13 13 13 15 16 17 17 16 18 11 7 9 5 9 13 19
5 7 9 7 9 11 9 9 13 11 22 25 25 26 32 33 28 27 26 25 26 25 22 20 18 16 15 14 13 15 17 18 18 20 21 19 21 21 20 17 13 7 9
7 6 6 8 16 16 15 15 15 14 14 18 22 24 32 28 26 24 24 25 23 23 21 21 18 16 14 13 14 16 19 20 21 24 24 24 21 22 22 21 14 7 5
6 7 6 9 12 17 16 17 16 17 19 20 21 25 28 26 28 23 22 25 23 21 23 21 18 16 15 14 14 16 18 20 21 25 27 26 22 23 23 23 23 12 7
7 7 5 11 13 17 20 22 21 20 20 23 24 24 23 25 27 25 27 25 22 18 19 18 18 17 14 12 14 18 20 22 24 26 26 25 26 26 26 27 27 24 19
7 5 6 6 11 11 15 18 18 19 22 24 23 25 23 25 22 26 26 19 19 19 17 17 14 10 9 11 14 18 21 23 24 25 27 24 25 26 28 27 27 24 20
4 6 7 11 11 11 14 15 22 21 21 25 25 27 23 23 20 20 21 21 20 20 18 13 10 9 9 14 14 17 19 21 24 25 26 24 23 24 25 25 24 21 10
8 5 4 5 8 11 18 21 18 19 23 21 23 25 23 24 25 22 22 21 20 17 13 9 6 6 8 15 16 16 19 22 20 19 21 21 20 22 22 22 16 12 15
12 12 11 14 14 18 18 13 21 22 22 22 21 22 25 23 21 23 23 23 19 16 11 7 6 8 16 15 13 15 17 16 17 21 22 24 23 21 23 16 14 11 12
13 14 16 13 9 14 14 19 20 23 23 24 22 22 23 21 20 21 24 23 20 15 13 5 7 12 13 11 12 14 15 18 19 21 22 26 23 22 23 14 16 16 15
17 16 10 9 10 10 12 12 10 18 21 26 26 23 21 23 22 24 23 20 17 13 4 8 8 14 9 10 14 18 17 16 17 20 20 19 22 23 18 19 18 18 16
11 7 7 5 4 6 6 8 11 12 18 22 21 19 21 23 23 25 21 18 14 8 9 6 11 10 9 8 12 14 12 14 16 19 19 21 20 19 16 18 17 16 16
9 7 4 2 5 3 4 6 6 10 16 18 18 19 21 20 19 22 20 17 12 10 6 9 9 8 9 10 13 13 14 15 16 17 16 17 18 18 16 16 13 14 14
7 4 5 4 5 2 3 6 10 10 12 14 16 20 22 19 22 24 19 13 11 9 8 7 5 6 9 10 14 13 14 17 18 17 15 14 16 16 14 13 12 12 12
4 5 2 5 2 3 5 8 10 12 15 16 18 21 23 22 23 19 16 11 9 8 7 6 6 8 11 10 11 12 11 12 15 16 17 13 15 12 14 13 11 10 11
7 6 3 2 7 6 8 9 11 13 14 16 19 20 19 16 15 13 11 10 9 8 8 8 10 13 11 10 11 12 12 11 12 15 17 16 13 12 13 12 11 12 9
3 2 2 4 6 8 10 8 6 11 14 15 16 17 15 11 8 8 8 8 8 7 8 9 11 11 8 10 11 11 10 11 13 17 15 12 11 8 14 12 11 9 8
2 3 6 7 7 8 10 15 13 15 19 19 16 15 14 13 11 10 7 6 7 9 10 9 8 8 9 8 9 9 10 11 12 12 9 9 8 7 13 12 12 10 12
3 3 4 7 8 9 9 19 15 14 16 17 15 11 9 8 6 5 7 8 9 10 12 12 9 10 8 8 8 9 8 9 8 6 6 6 6 9 13 12 12 14 15
10 7 5 8 8 9 17 17 16 14 15 16 14 12 11 9 5 6 7 9 12 13 11 12 10 9 7 6 6 8 8 8 7 4 4 5 6 12 13 14 17 17 17
13 13 3 11 15 16 14 14 9 9 13 11 9 6 6 2 4 5 8 9 11 13 15 15 13 8 6 5 6 7 6 6 4 2 4 5 9 13 15 16 17 17 18
Wind_Direction
208 213 208 202 205 199 176 173 172 181 192 193 195 197 198 202 210 215 214 204 205 207 214 206 212 205 215 210 218 219 274 271 287 286 283 282 267 263 260 255 259 265 261
224 218 203 183 198 199 176 172 171 177 191 192 200 200 195 202 209 206 209 204 201 207 207 206 205 192 207 226 240 230 248 271 270 270 276 277 268 254 261 254 251 257 258
218 121 150 139 134 174 174 180 174 179 189 187 189 199 194 206 202 208 206 206 206 207 206 212 204 207 220 222 222 222 237 261 268 261 249 306 260 341 298 238 249 250 257
106 65 151 160 173 203 226 232 201 186 187 185 184 188 197 202 208 206 206 207 208 209 208 201 203 200 208 215 218 246 265 245 258 272 265 263 267 288 298 293 265 253 258
122 160 128 134 185 194 202 220 240 244 184 181 187 188 191 208 209 210 205 206 207 209 201 201 199 198 211 221 234 241 254 259 259 259 264 262 265 267 257 281 265 260 245
123 153 156 176 204 185 168 201 230 238 184 186 195 197 193 196 216 208 209 203 199 190 192 195 201 205 212 223 240 252 258 261 257 257 258 250 242 236 235 266 270 258 267
178 172 155 175 211 161 178 198 216 218 178 192 201 205 199 202 217 213 211 183 180 190 191 195 199 203 217 235 245 254 258 257 260 260 259 259 258 259 260 260 271 266 277
177 202 191 165 170 171 187 199 216 226 204 203 212 213 214 214 220 205 185 192 190 188 195 196 202 208 220 234 247 255 258 265 263 261 256 257 262 265 265 263 262 279 241
207 184 175 169 166 177 186 194 206 217 218 219 220 221 217 218 210 194 197 200 195 190 189 190 200 211 225 243 257 260 265 263 263 266 262 253 261 273 277 276 276 254 272
234 169 192 168 192 194 191 193 202 213 216 221 223 224 224 210 200 204 199 189 181 177 182 189 202 217 235 251 260 267 266 262 265 265 265 257 260 273 272 276 277 266 260
198 180 186 196 196 203 194 195 203 213 214 211 214 216 218 201 201 188 186 175 183 192 198 207 214 232 247 264 267 268 271 269 269 270 271 268 266 263 270 275 268 261 262
238 239 200 188 210 219 226 228 203 215 226 212 210 217 208 199 192 185 184 190 191 194 191 196 206 223 246 266 270 272 276 279 283 284 282 276 274 252 258 261 257 257 256
226 220 260 234 226 222 224 226 232 221 221 238 222 200 195 197 194 193 193 191 188 188 187 200 225 253 283 271 273 280 288 287 280 293 299 292 282 276 273 267 246 252 283
236 200 212 228 222 223 227 232 225 233 224 217 204 199 195 191 196 198 194 189 181 180 183 184 218 275 263 272 287 296 291 284 298 298 293 291 284 278 276 258 264 257 253
248 230 216 231 215 218 208 221 234 225 221 208 210 205 197 199 204 200 194 179 180 180 182 228 260 255 263 285 291 294 302 295 301 297 289 286 287 282 265 259 279 255 266
249 257 243 243 241 214 200 227 240 226 216 204 207 203 191 197 200 195 181 182 182 183 127 215 248 259 258 278 292 298 298 287 289 286 291 277 287 273 257 264 264 263 256
260 249 257 245 195 167 191 210 237 252 221 201 196 192 193 192 183 175 177 184 184 157 208 231 239 251 293 311 300 301 285 286 283 290 291 286 279 255 264 271 263 261 264
276 271 247 150 140 178 243 251 248 257 179 180 187 193 174 161 172 177 186 190 174 183 208 222 251 282 301 300 296 296 293 294 295 292 290 277 271 264 274 265 257 265 271
255 95 44 26 32 12 262 230 238 236 175 183 191 173 160 168 176 186 188 182 174 178 214 229 231 281 294 290 293 298 296 289 291 294 289 286 274 269 260 241 248 259 269
65 75 85 111 126 210 202 206 212 195 187 194 193 170 170 181 182 184 177 180 186 195 196 224 251 289 295 297 290 290 293 286 284 286 286 288 277 262 229 234 239 246 249
77 70 34 136 168 193 196 201 200 189 184 189 171 169 173 177 172 169 176 170 184 206 235 262 267 274 267 272 277 285 295 292 288 284 280 284 281 250 230 230 235 244 238
70 16 219 192 148 176 186 166 135 167 172 173 150 139 142 154 150 161 168 182 185 212 238 249 261 282 270 275 276 285 289 285 281 283 285 284 271 250 218 215 224 232 201
222 189 240 128 121 163 181 123 123 127 124 124 125 135 145 150 163 168 174 204 221 240 244 240 251 258 278 276 285 296 293 288 284 286 284 277 263 227 202 207 213 204 186
299 237 261 133 160 171 176 140 135 137 133 132 129 144 161 178 184 197 212 228 236 245 249 248 250 259 264 283 293 297 307 299 295 284 275 268 245 206 194 191 201 198 191
325 307 235 152 153 129 122 131 135 150 143 141 154 170 175 173 196 229 257 243 240 243 256 252 231 234 258 277 302 311 310 304 299 291 275 244 198 180 179 183 190 194 190
270 259 272 167 129 110 105 96 116 140 125 124 129 124 99 130 234 244 228 233 252 252 244 235 234 230 239 270 299 317 302 288 282 263 264 219 199 182 180 179 181 193 192
Height
707 710 712 717 721 726 731 737 745 754 762 769 772 774 776 780 783 786 788 792 794 797 799 800 803 806 809 809 809 810 812 813 814 814 813 810 810 810 807 806 807 809 809
703 703 705 711 716 721 727 733 739 745 753 762 768 773 774 776 779 782 785 787 788 791 794 796 798 799 802 803 806 808 809 810 810 810 809 806 805 803 803 806 804 805 806
696 698 701 708 714 719 725 729 734 739 745 753 762 768 772 776 777 777 779 780 784 787 790 792 793 795 799 803 804 804 804 805 806 807 809 807 804 801 802 801 803 802 802
692 698 703 710 715 720 724 727 731 733 738 745 752 758 764 767 768 772 775 777 780 783 787 788 790 795 798 799 802 803 803 804 806 808 807 806 805 803 797 800 797 798 797
696 702 707 711 715 720 724 727 730 732 735 737 743 748 754 761 765 768 769 771 774 778 781 784 788 790 794 796 798 798 800 802 803 803 802 801 800 801 798 791 792 792 790
699 703 708 714 717 720 723 726 729 732 733 738 743 745 747 754 760 762 764 766 769 772 776 780 784 785 790 792 792 794 795 796 797 798 796 795 796 797 798 794 791 789 788
702 704 710 716 718 720 723 726 728 730 731 734 739 741 742 746 751 755 758 760 764 768 772 776 779 783 785 786 789 790 791 791 792 793 792 791 791 789 789 789 789 785 783
700 703 705 707 712 717 721 725 726 727 729 732 735 738 740 742 746 750 753 757 762 765 770 773 774 776 778 780 782 784 786 787 786 786 786 785 785 786 784 784 783 782 781
697 702 705 708 711 714 718 722 725 726 728 730 733 734 736 739 742 746 751 755 758 761 764 767 770 773 773 776 778 780 781 782 782 782 782 780 780 783 781 779 780 780 775
694 697 701 705 708 710 712 714 717 720 723 725 727 729 732 733 737 741 745 748 752 756 760 763 767 768 770 773 774 774 775 775 776 777 774 773 774 776 777 777 776 775 773
691 694 698 702 704 708 711 713 715 717 717 719 722 725 728 732 736 738 741 745 750 754 757 760 763 766 767 768 769 771 772 771 769 767 768 765 767 767 770 771 769 768 768
687 689 691 695 699 702 705 707 708 712 715 715 718 721 725 730 734 737 740 745 747 751 754 757 760 762 763 767 765 766 766 764 764 763 761 759 760 759 759 761 763 762 762
686 687 690 692 693 695 697 699 702 704 708 711 715 718 720 724 727 731 735 739 745 750 753 756 758 760 761 765 762 760 762 761 759 757 756 755 756 758 757 757 756 756 757
677 680 682 682 684 686 687 691 694 697 700 704 709 713 716 720 726 731 734 737 742 746 749 752 754 755 760 759 757 755 754 752 755 755 754 754 751 751 752 752 752 752 753
668 669 671 672 673 675 678 683 688 690 694 700 705 710 715 720 724 729 733 735 739 742 744 744 751 754 757 754 751 750 750 749 746 748 748 748 748 746 748 747 748 750 751
657 658 658 660 663 666 672 678 682 686 689 692 697 703 709 715 720 724 729 734 736 738 737 745 748 753 750 745 743 743 744 745 744 742 741 741 743 743 744 745 746 746 747
649 651 651 653 657 662 666 671 676 681 685 689 694 699 705 712 715 721 727 732 735 733 740 742 746 747 745 742 740 740 739 739 741 739 737 736 738 738 739 740 741 742 743
645 646 647 649 652 657 662 667 671 675 678 683 690 696 701 708 715 722 727 729 729 732 736 740 741 740 739 738 739 738 738 736 735 737 734 733 735 733 734 736 737 739 739
639 641 646 651 656 659 663 668 672 675 679 683 688 693 699 707 713 717 723 725 725 727 733 735 736 736 735 737 738 736 736 736 734 733 732 731 731 730 731 733 733 735 736
636 642 648 652 657 661 664 668 671 674 677 683 688 691 696 705 710 716 718 723 725 726 730 731 731 733 734 735 734 734 732 730 729 730 729 726 728 726 727 729 732 733 734
644 650 654 655 659 665 668 670 672 674 677 681 685 692 698 702 707 713 718 721 723 723 726 727 727 727 727 727 727 730 728 727 724 725 724 722 723 723 724 726 728 731 731
650 654 656 656 657 663 667 670 676 679 682 684 686 691 698 703 708 712 715 717 718 721 721 723 724 725 725 724 725 724 722 723 721 721 719 717 719 719 720 723 726 728 729
651 655 658 658 659 664 669 669 674 678 681 685 691 695 698 703 706 709 711 714 714 717 717 719 722 722 724 721 722 720 719 719 717 717 715 714 715 715 717 721 723 726 728
655 655 658 659 662 666 672 673 678 682 683 687 692 699 704 708 708 707 708 711 713 714 716 716 718 719 721 720 716 717 716 717 716 712 711 712 713 713 715 719 722 724 726
660 659 659 661 663 669 670 674 679 684 685 687 694 699 701 704 706 708 709 708 710 712 713 715 714 715 717 717 715 713 713 716 714 709 709 711 711 712 714 717 720 723 726
663 660 661 663 664 673 679 680 686 688 690 691 694 698 700 703 705 705 708 706 706 706 706 710 712 712 712 713 712 713 712 713 711 708 709 710 711 711 713 716 719 722 725